| time (UTC) | temp C | wind direction | speed KPH | gust KPH | rain 1hr cm | rain 24hr cm | rain mn cm | humidity % | barometer mb |
| 20260507134508 | 11 | 343 | 4.8 | 9.7 | 0.00 | 0.08 | 0.00 | 57 | 1010.0 |
| 20260507134007 | 10 | 291 | 1.6 | 9.7 | 0.00 | 0.10 | 0.00 | 63 | 1009.9 |
| 20260507133504 | 10 | 275 | 3.2 | 9.7 | 0.00 | 0.10 | 0.00 | 61 | 1010.0 |
| 20260507133010 | 10 | 314 | 1.6 | 6.4 | 0.00 | 0.10 | 0.00 | 61 | 1009.9 |
| 20260507132504 | 10 | 355 | 0.0 | 9.7 | 0.00 | 0.10 | 0.00 | 63 | 1010.2 |
| 20260507132008 | 10 | 13 | 0.0 | 9.7 | 0.00 | 0.10 | 0.00 | 58 | 1010.2 |
| 20260507131517 | 10 | 327 | 0.0 | 4.8 | 0.00 | 0.10 | 0.00 | 67 | 1010.2 |
| 20260507131008 | 10 | 245 | 0.0 | 6.4 | 0.00 | 0.10 | 0.00 | 62 | 1010.2 |
| 20260507130507 | 10 | 260 | 1.6 | 6.4 | 0.00 | 0.10 | 0.00 | 60 | 1010.2 |
| 20260507130014 | 10 | 346 | 3.2 | 4.8 | 0.00 | 0.10 | 0.00 | 62 | 1010.4 |
| 20260507125512 | 10 | 281 | 0.0 | 0.0 | 0.00 | 0.13 | 0.00 | 63 | 1010.4 |
| 20260507125006 | 9 | 286 | 0.0 | 0.0 | 0.00 | 0.13 | 0.00 | 61 | 1010.6 |
| 20260507124511 | 9 | 130 | 0.0 | 0.0 | 0.00 | 0.13 | 0.00 | 61 | 1010.6 |
| 20260507124007 | 8 | 105 | 0.0 | 0.0 | 0.00 | 0.13 | 0.00 | 60 | 1010.5 |
| 20260507123507 | 8 | 145 | 0.0 | 0.0 | 0.00 | 0.13 | 0.00 | 63 | 1010.6 |
| 20260507123026 | 7 | 36 | 0.0 | 0.0 | 0.00 | 0.13 | 0.00 | 66 | 1010.6 |
| 20260507122512 | 7 | 224 | 0.0 | 0.0 | 0.00 | 0.13 | 0.00 | 68 | 1010.6 |
| 20260507122008 | 6 | 289 | 0.0 | 0.0 | 0.00 | 0.13 | 0.00 | 73 | 1010.6 |
| 20260507121521 | 6 | 345 | 0.0 | 3.2 | 0.00 | 0.15 | 0.00 | 71 | 1010.5 |
| 20260507121007 | 6 | 340 | 0.0 | 3.2 | 0.00 | 0.20 | 0.00 | 75 | 1010.6 |
| 20260507120509 | 5 | 40 | 0.0 | 3.2 | 0.00 | 0.23 | 0.00 | 73 | 1010.4 |
| 20260507120028 | 5 | 88 | 0.0 | 0.0 | 0.00 | 0.25 | 0.00 | 74 | 1010.4 |
| 20260507115509 | 5 | 47 | 0.0 | 0.0 | 0.00 | 0.28 | 0.00 | 75 | 1010.4 |
| 20260507115012 | 5 | 63 | 0.0 | 0.0 | 0.00 | 0.30 | 0.00 | 75 | 1010.3 |
| 20260507114516 | 4 | 102 | 0.0 | 0.0 | 0.00 | 0.33 | 0.00 | 77 | 1010.2 |
| 20260507114010 | 3 | 28 | 0.0 | 0.0 | 0.00 | 0.36 | 0.00 | 79 | 1010.2 |
| 20260507113508 | 3 | 90 | 0.0 | 0.0 | 0.00 | 0.41 | 0.00 | 82 | 1010.2 |
| 20260507113040 | 3 | 93 | 0.0 | 0.0 | 0.00 | 0.43 | 0.00 | 83 | 1010.1 |
| 20260507112511 | 2 | 20 | 0.0 | 0.0 | 0.00 | 0.46 | 0.00 | 86 | 1010.1 |
| 20260507112011 | 2 | 20 | 0.0 | 0.0 | 0.00 | 0.48 | 0.00 | 89 | 1010.2 |
| 20260507111527 | 2 | 20 | 0.0 | 0.0 | 0.00 | 0.48 | 0.00 | 90 | 1010.0 |
| 20260507111010 | 2 | 20 | 0.0 | 0.0 | 0.00 | 0.48 | 0.00 | 91 | 1010.0 |
| 20260507110506 | 1 | 20 | 0.0 | 0.0 | 0.00 | 0.48 | 0.00 | 91 | 1009.9 |
| 20260507110029 | 1 | 20 | 0.0 | 0.0 | 0.00 | 0.48 | 0.00 | 91 | 1010.0 |
| 20260507105504 | 1 | 24 | 0.0 | 0.0 | 0.00 | 0.48 | 0.00 | 91 | 1009.9 |
| 20260507105007 | 1 | 76 | 0.0 | 0.0 | 0.00 | 0.51 | 0.00 | 90 | 1009.8 |
| 20260507104507 | 1 | 75 | 0.0 | 0.0 | 0.00 | 0.51 | 0.00 | 90 | 1009.7 |
| 20260507104010 | 1 | 76 | 0.0 | 0.0 | 0.00 | 0.51 | 0.00 | 89 | 1009.8 |
| 20260507103502 | 1 | 76 | 0.0 | 0.0 | 0.00 | 0.51 | 0.00 | 89 | 1009.7 |
| 20260507103004 | 1 | 76 | 0.0 | 0.0 | 0.00 | 0.51 | 0.00 | 89 | 1009.8 |
| 20260507102504 | 1 | 76 | 0.0 | 0.0 | 0.00 | 0.51 | 0.00 | 88 | 1009.7 |
| 20260507102006 | 1 | 76 | 0.0 | 0.0 | 0.00 | 0.53 | 0.00 | 88 | 1009.6 |
| 20260507101504 | 1 | 76 | 0.0 | 0.0 | 0.00 | 0.53 | 0.00 | 88 | 1009.6 |
| 20260507101007 | 1 | 76 | 0.0 | 0.0 | 0.00 | 0.53 | 0.00 | 88 | 1009.7 |
| 20260507100503 | 1 | 76 | 0.0 | 0.0 | 0.00 | 0.53 | 0.00 | 87 | 1009.6 |
| 20260507100013 | 1 | 76 | 0.0 | 0.0 | 0.00 | 0.53 | 0.00 | 87 | 1009.6 |
| 20260507095503 | 1 | 76 | 0.0 | 0.0 | 0.00 | 0.53 | 0.00 | 86 | 1009.6 |
| 20260507095004 | 1 | 76 | 0.0 | 0.0 | 0.00 | 0.53 | 0.00 | 86 | 1009.5 |
| 20260507094510 | 1 | 76 | 0.0 | 0.0 | 0.00 | 0.53 | 0.00 | 86 | 1009.5 |
| 20260507094003 | 1 | 76 | 0.0 | 0.0 | 0.00 | 0.53 | 0.00 | 86 | 1009.5 |
| 20260507093504 | 2 | 76 | 0.0 | 0.0 | 0.00 | 0.53 | 0.00 | 86 | 1009.4 |
| 20260507093013 | 2 | 76 | 0.0 | 0.0 | 0.00 | 0.53 | 0.00 | 85 | 1009.4 |
| 20260507092505 | 2 | 76 | 0.0 | 0.0 | 0.00 | 0.53 | 0.00 | 85 | 1009.4 |
| 20260507092003 | 2 | 76 | 0.0 | 0.0 | 0.00 | 0.53 | 0.00 | 84 | 1009.4 |
| 20260507091503 | 2 | 76 | 0.0 | 0.0 | 0.00 | 0.53 | 0.00 | 83 | 1009.5 |
| 20260507091004 | 2 | 76 | 0.0 | 0.0 | 0.00 | 0.53 | 0.00 | 83 | 1009.5 |
| 20260507090505 | 2 | 76 | 0.0 | 0.0 | 0.00 | 0.53 | 0.00 | 82 | 1009.5 |
| 20260507090007 | 3 | 76 | 0.0 | 0.0 | 0.00 | 0.53 | 0.00 | 81 | 1009.5 |
| 20260507085504 | 3 | 76 | 0.0 | 0.0 | 0.00 | 0.53 | 0.00 | 80 | 1009.4 |
| 20260507085005 | 3 | 76 | 0.0 | 0.0 | 0.00 | 0.53 | 0.00 | 80 | 1009.4 |
| 20260507084518 | 3 | 75 | 0.0 | 0.0 | 0.00 | 0.53 | 0.00 | 78 | 1009.4 |
| 20260507084005 | 4 | 76 | 0.0 | 0.0 | 0.00 | 0.53 | 0.00 | 77 | 1009.5 |
| 20260507083506 | 4 | 76 | 0.0 | 0.0 | 0.00 | 0.53 | 0.00 | 77 | 1009.5 |
| 20260507083010 | 5 | 76 | 0.0 | 0.0 | 0.00 | 0.53 | 0.00 | 76 | 1009.5 |
| 20260507082509 | 5 | 76 | 0.0 | 0.0 | 0.00 | 0.53 | 0.00 | 73 | 1009.6 |
| 20260507082003 | 5 | 76 | 0.0 | 0.0 | 0.00 | 0.53 | 0.00 | 75 | 1009.6 |
| 20260507081506 | 5 | 76 | 0.0 | 0.0 | 0.00 | 0.53 | 0.00 | 72 | 1009.6 |
| 20260507081005 | 6 | 76 | 0.0 | 0.0 | 0.00 | 0.53 | 0.00 | 73 | 1009.6 |
| 20260507080505 | 6 | 76 | 0.0 | 0.0 | 0.00 | 0.53 | 0.00 | 73 | 1009.6 |
| 20260507080007 | 6 | 76 | 0.0 | 0.0 | 0.00 | 0.53 | 0.00 | 71 | 1009.6 |
| 20260507075503 | 6 | 76 | 0.0 | 0.0 | 0.00 | 0.53 | 0.00 | 72 | 1009.6 |
| 20260507075008 | 6 | 61 | 0.0 | 0.0 | 0.00 | 0.53 | 0.00 | 70 | 1009.6 |
| 20260507074508 | 6 | 93 | 0.0 | 0.0 | 0.00 | 0.53 | 0.00 | 69 | 1009.6 |
| 20260507074004 | 6 | 55 | 0.0 | 0.0 | 0.00 | 0.53 | 0.00 | 72 | 1009.6 |
| 20260507073505 | 6 | 61 | 0.0 | 0.0 | 0.00 | 0.53 | 0.00 | 72 | 1009.7 |
| 20260507073014 | 6 | 62 | 0.0 | 3.2 | 0.00 | 0.53 | 0.00 | 71 | 1009.6 |
| 20260507072502 | 6 | 71 | 0.0 | 8.0 | 0.00 | 0.53 | 0.00 | 71 | 1009.6 |
| 20260507072003 | 6 | 73 | 0.0 | 8.0 | 0.00 | 0.53 | 0.00 | 71 | 1009.6 |
| 20260507071514 | 6 | 51 | 0.0 | 3.2 | 0.00 | 0.53 | 0.00 | 70 | 1009.5 |
| 20260507071008 | 6 | 99 | 0.0 | 1.6 | 0.00 | 0.53 | 0.00 | 70 | 1009.4 |
| 20260507070507 | 6 | 55 | 0.0 | 1.6 | 0.00 | 0.53 | 0.00 | 69 | 1009.4 |
| 20260507070016 | 6 | 67 | 0.0 | 3.2 | 0.00 | 0.53 | 0.00 | 71 | 1009.4 |
| 20260507065505 | 6 | 108 | 0.0 | 3.2 | 0.00 | 0.53 | 0.00 | 70 | 1009.5 |
| 20260507065006 | 6 | 42 | 0.0 | 3.2 | 0.00 | 0.53 | 0.00 | 68 | 1009.6 |
| 20260507064508 | 6 | 14 | 0.0 | 3.2 | 0.00 | 0.53 | 0.00 | 70 | 1009.6 |
| 20260507064003 | 6 | 47 | 0.0 | 3.2 | 0.00 | 0.53 | 0.00 | 70 | 1009.6 |
| 20260507063506 | 6 | 92 | 0.0 | 3.2 | 0.00 | 0.53 | 0.00 | 70 | 1009.6 |
| 20260507063010 | 6 | 15 | 0.0 | 1.6 | 0.00 | 0.53 | 0.00 | 71 | 1009.5 |
| 20260507062503 | 6 | 52 | 0.0 | 3.2 | 0.00 | 0.53 | 0.00 | 69 | 1009.6 |
| 20260507062002 | 7 | 52 | 0.0 | 3.2 | 0.00 | 0.53 | 0.00 | 69 | 1009.7 |
| 20260507061508 | 7 | 132 | 0.0 | 3.2 | 0.00 | 0.53 | 0.00 | 70 | 1009.8 |
| 20260507061010 | 7 | 89 | 0.0 | 3.2 | 0.00 | 0.53 | 0.00 | 70 | 1009.9 |
| 20260507060503 | 7 | 23 | 0.0 | 3.2 | 0.00 | 0.53 | 0.00 | 69 | 1010.0 |
| 20260507060010 | 7 | 69 | 0.0 | 3.2 | 0.00 | 0.53 | 0.00 | 70 | 1010.0 |
| 20260507055508 | 7 | 74 | 0.0 | 3.2 | 0.00 | 0.53 | 0.00 | 66 | 1010.0 |
| 20260507055007 | 7 | 73 | 0.0 | 4.8 | 0.00 | 0.53 | 0.00 | 70 | 1010.0 |
| 20260507054508 | 7 | 49 | 0.0 | 6.4 | 0.00 | 0.53 | 0.00 | 64 | 1010.0 |
| 20260507054007 | 7 | 30 | 0.0 | 6.4 | 0.00 | 0.53 | 0.00 | 64 | 1009.9 |
| 20260507053507 | 7 | 31 | 0.0 | 6.4 | 0.00 | 0.53 | 0.00 | 68 | 1009.9 |
| 20260507053008 | 7 | 60 | 0.0 | 1.6 | 0.00 | 0.53 | 0.00 | 68 | 1009.9 |
| 20260507052506 | 7 | 114 | 0.0 | 4.8 | 0.00 | 0.53 | 0.00 | 66 | 1009.9 |
| 20260507052007 | 7 | 71 | 0.0 | 4.8 | 0.00 | 0.53 | 0.00 | 66 | 1009.9 |
| 20260507051512 | 8 | 27 | 1.6 | 4.8 | 0.00 | 0.53 | 0.00 | 68 | 1010.1 |
| 20260507051009 | 8 | 59 | 0.0 | 3.2 | 0.00 | 0.53 | 0.00 | 69 | 1010.1 |
| 20260507050505 | 8 | 59 | 0.0 | 3.2 | 0.00 | 0.53 | 0.00 | 64 | 1010.1 |
| 20260507050034 | 8 | 61 | 0.0 | 3.2 | 0.00 | 0.53 | 0.00 | 65 | 1010.0 |
| 20260507045508 | 8 | 96 | 0.0 | 3.2 | 0.00 | 0.53 | 0.00 | 64 | 1009.9 |
| 20260507045007 | 8 | 124 | 0.0 | 4.8 | 0.00 | 0.53 | 0.00 | 63 | 1010.0 |
| 20260507044524 | 8 | 59 | 0.0 | 6.4 | 0.00 | 0.53 | 0.00 | 63 | 1010.1 |
| 20260507044007 | 8 | 52 | 3.2 | 6.4 | 0.00 | 0.53 | 0.00 | 64 | 1010.0 |
| 20260507043507 | 8 | 63 | 0.0 | 4.8 | 0.00 | 0.53 | 0.00 | 70 | 1009.9 |
| 20260507043025 | 8 | 58 | 0.0 | 4.8 | 0.00 | 0.53 | 0.00 | 71 | 1010.0 |
| 20260507042509 | 8 | 26 | 0.0 | 3.2 | 0.00 | 0.53 | 0.00 | 73 | 1010.1 |
| 20260507042007 | 8 | 49 | 0.0 | 3.2 | 0.00 | 0.53 | 0.00 | 71 | 1010.0 |
| 20260507041513 | 8 | 60 | 0.0 | 0.0 | 0.00 | 0.53 | 0.00 | 73 | 1009.8 |
| 20260507041007 | 8 | 60 | 0.0 | 0.0 | 0.00 | 0.53 | 0.00 | 73 | 1009.5 |
| 20260507040509 | 8 | 60 | 0.0 | 0.0 | 0.00 | 0.53 | 0.00 | 71 | 1009.4 |
| 20260507040020 | 8 | 60 | 0.0 | 3.2 | 0.00 | 0.53 | 0.00 | 70 | 1009.7 |
| 20260507035505 | 8 | 60 | 0.0 | 3.2 | 0.00 | 0.53 | 0.53 | 67 | 1009.8 |
| 20260507035007 | 8 | 113 | 0.0 | 3.2 | 0.00 | 0.53 | 0.53 | 66 | 1009.6 |
| 20260507034519 | 9 | 134 | 0.0 | 3.2 | 0.00 | 0.53 | 0.53 | 66 | 1009.7 |
| 20260507034013 | 9 | 103 | 0.0 | 3.2 | 0.00 | 0.53 | 0.53 | 66 | 1009.7 |
| 20260507033507 | 9 | 92 | 0.0 | 3.2 | 0.00 | 0.53 | 0.53 | 65 | 1009.6 |
| 20260507033019 | 9 | 211 | 0.0 | 3.2 | 0.00 | 0.53 | 0.53 | 65 | 1009.6 |
| 20260507032511 | 9 | 67 | 0.0 | 3.2 | 0.00 | 0.53 | 0.53 | 66 | 1009.6 |
| 20260507032011 | 9 | 117 | 0.0 | 6.4 | 0.00 | 0.53 | 0.53 | 67 | 1009.5 |
| 20260507031514 | 9 | 105 | 0.0 | 9.7 | 0.00 | 0.53 | 0.53 | 65 | 1009.6 |
| 20260507031007 | 9 | 41 | 0.0 | 9.7 | 0.00 | 0.53 | 0.53 | 68 | 1009.6 |
| 20260507030508 | 9 | 55 | 0.0 | 6.4 | 0.00 | 0.53 | 0.53 | 68 | 1009.4 |
| 20260507030013 | 9 | 139 | 0.0 | 6.4 | 0.00 | 0.53 | 0.53 | 68 | 1009.4 |
| 20260507025509 | 9 | 41 | 0.0 | 4.8 | 0.00 | 0.53 | 0.53 | 73 | 1009.4 |
| 20260507025013 | 9 | 66 | 0.0 | 4.8 | 0.00 | 0.53 | 0.53 | 73 | 1009.4 |
| 20260507024518 | 9 | 134 | 0.0 | 6.4 | 0.00 | 0.53 | 0.53 | 73 | 1009.2 |
| 20260507024012 | 9 | 134 | 0.0 | 9.7 | 0.00 | 0.53 | 0.53 | 73 | 1009.1 |
| 20260507023509 | 9 | 171 | 1.6 | 9.7 | 0.00 | 0.53 | 0.53 | 75 | 1009.2 |
| 20260507023021 | 9 | 146 | 0.0 | 9.7 | 0.00 | 0.53 | 0.53 | 77 | 1009.1 |
| 20260507022509 | 9 | 107 | 1.6 | 6.4 | 0.00 | 0.53 | 0.53 | 78 | 1008.9 |
| 20260507022009 | 10 | 140 | 0.0 | 4.8 | 0.00 | 0.53 | 0.53 | 78 | 1008.9 |
| 20260507021528 | 10 | 65 | 0.0 | 4.8 | 0.00 | 0.53 | 0.53 | 80 | 1008.9 |
| 20260507021007 | 10 | 167 | 0.0 | 8.0 | 0.00 | 0.53 | 0.53 | 80 | 1008.9 |
| 20260507020511 | 10 | 135 | 1.6 | 8.0 | 0.00 | 0.53 | 0.53 | 81 | 1008.9 |
| 20260507020023 | 10 | 141 | 0.0 | 1.6 | 0.00 | 0.53 | 0.53 | 81 | 1008.9 |
| 20260507015506 | 10 | 141 | 0.0 | 1.6 | 0.00 | 0.53 | 0.53 | 82 | 1009.0 |
| 20260507015004 | 10 | 141 | 0.0 | 1.6 | 0.00 | 0.53 | 0.53 | 81 | 1009.1 |
| 20260507014504 | 10 | 109 | 0.0 | 1.6 | 0.00 | 0.53 | 0.53 | 82 | 1009.3 |
| 20260507014005 | 10 | 61 | 0.0 | 1.6 | 0.00 | 0.53 | 0.53 | 82 | 1009.3 |
| 20260507013504 | 10 | 61 | 0.0 | 0.0 | 0.00 | 0.53 | 0.53 | 81 | 1009.3 |
| 20260507013009 | 10 | 61 | 0.0 | 0.0 | 0.00 | 0.53 | 0.53 | 81 | 1009.2 |
| 20260507012505 | 10 | 61 | 0.0 | 0.0 | 0.00 | 0.53 | 0.53 | 80 | 1009.2 |
| 20260507012003 | 10 | 61 | 0.0 | 0.0 | 0.00 | 0.53 | 0.53 | 79 | 1009.3 |
| 20260507011514 | 10 | 61 | 0.0 | 6.4 | 0.00 | 0.53 | 0.53 | 80 | 1009.3 |
| 20260507011003 | 10 | 61 | 0.0 | 6.4 | 0.00 | 0.53 | 0.53 | 78 | 1009.4 |
| 20260507010506 | 10 | 34 | 0.0 | 6.4 | 0.00 | 0.53 | 0.53 | 78 | 1009.4 |
| 20260507010008 | 10 | 347 | 0.0 | 9.7 | 0.00 | 0.53 | 0.53 | 78 | 1009.4 |
| 20260507005504 | 10 | 107 | 0.0 | 9.7 | 0.00 | 0.53 | 0.53 | 77 | 1009.2 |
| 20260507005007 | 11 | 112 | 0.0 | 3.2 | 0.00 | 0.53 | 0.53 | 78 | 1009.1 |
| 20260507004505 | 11 | 73 | 0.0 | 12.9 | 0.00 | 0.53 | 0.53 | 77 | 1009.3 |
| 20260507004004 | 11 | 31 | 1.6 | 12.9 | 0.00 | 0.53 | 0.53 | 77 | 1009.3 |
| 20260507003508 | 11 | 105 | 0.0 | 11.3 | 0.00 | 0.53 | 0.53 | 77 | 1009.1 |
| 20260507003004 | 11 | 130 | 0.0 | 4.8 | 0.00 | 0.53 | 0.53 | 77 | 1009.1 |
| 20260507002504 | 11 | 44 | 0.0 | 3.2 | 0.00 | 0.53 | 0.53 | 80 | 1009.0 |
| 20260507002006 | 11 | 144 | 0.0 | 4.8 | 0.00 | 0.53 | 0.53 | 80 | 1008.9 |
| 20260507001505 | 11 | 92 | 0.0 | 4.8 | 0.00 | 0.53 | 0.53 | 79 | 1008.7 |
| 20260507001004 | 11 | 50 | 0.0 | 4.8 | 0.00 | 0.53 | 0.53 | 80 | 1008.6 |
| 20260507000508 | 11 | 30 | 0.0 | 4.8 | 0.00 | 0.53 | 0.53 | 80 | 1008.7 |
| 20260507000004 | 11 | 56 | 0.0 | 4.8 | 0.00 | 0.53 | 0.53 | 81 | 1008.5 |
| 20260506235504 | 11 | 123 | 0.0 | 6.4 | 0.00 | 0.53 | 0.53 | 80 | 1008.2 |
| 20260506235007 | 11 | 34 | 1.6 | 11.3 | 0.00 | 0.53 | 0.53 | 79 | 1008.3 |
| 20260506234505 | 11 | 82 | 1.6 | 11.3 | 0.00 | 0.53 | 0.53 | 79 | 1008.2 |
| 20260506234007 | 11 | 99 | 1.6 | 8.0 | 0.00 | 0.53 | 0.53 | 79 | 1008.0 |
| 20260506233504 | 11 | 27 | 1.6 | 16.1 | 0.00 | 0.53 | 0.53 | 79 | 1007.9 |
| 20260506233007 | 11 | 133 | 1.6 | 16.1 | 0.00 | 0.53 | 0.53 | 79 | 1007.9 |
| 20260506232503 | 11 | 82 | 0.0 | 4.8 | 0.00 | 0.53 | 0.53 | 80 | 1007.7 |
| 20260506232003 | 11 | 24 | 0.0 | 6.4 | 0.00 | 0.53 | 0.53 | 80 | 1007.6 |
| 20260506231508 | 11 | 136 | 1.6 | 9.7 | 0.00 | 0.53 | 0.53 | 79 | 1007.7 |
| 20260506231004 | 11 | 46 | 1.6 | 8.0 | 0.00 | 0.53 | 0.53 | 79 | 1007.6 |
| 20260506230506 | 11 | 142 | 0.0 | 9.7 | 0.00 | 0.53 | 0.53 | 79 | 1007.6 |
| 20260506230006 | 11 | 122 | 1.6 | 16.1 | 0.00 | 0.53 | 0.53 | 78 | 1007.8 |
| 20260506225508 | 11 | 11 | 4.8 | 16.1 | 0.00 | 0.53 | 0.53 | 78 | 1007.8 |
| 20260506225004 | 12 | 180 | 1.6 | 14.5 | 0.00 | 0.53 | 0.53 | 79 | 1007.8 |
| 20260506224506 | 12 | 50 | 1.6 | 11.3 | 0.00 | 0.53 | 0.53 | 80 | 1007.9 |
| 20260506224006 | 12 | 350 | 1.6 | 11.3 | 0.00 | 0.53 | 0.53 | 79 | 1007.8 |
| 20260506223511 | 12 | 173 | 1.6 | 12.9 | 0.00 | 0.53 | 0.53 | 79 | 1007.6 |
| 20260506223015 | 12 | 91 | 4.8 | 12.9 | 0.00 | 0.53 | 0.53 | 79 | 1007.5 |
| 20260506222509 | 12 | 41 | 4.8 | 11.3 | 0.00 | 0.53 | 0.53 | 78 | 1007.3 |
| 20260506222013 | 12 | 130 | 1.6 | 11.3 | 0.00 | 0.53 | 0.53 | 78 | 1007.1 |
| 20260506221506 | 12 | 44 | 3.2 | 11.3 | 0.00 | 0.53 | 0.53 | 78 | 1007.1 |
| 20260506221007 | 12 | 150 | 0.0 | 11.3 | 0.00 | 0.53 | 0.53 | 78 | 1007.1 |
| 20260506220507 | 12 | 92 | 1.6 | 14.5 | 0.00 | 0.53 | 0.53 | 79 | 1007.0 |
| 20260506220007 | 13 | 82 | 3.2 | 14.5 | 0.00 | 0.53 | 0.53 | 78 | 1007.1 |
| 20260506215503 | 13 | 82 | 1.6 | 11.3 | 0.00 | 0.53 | 0.53 | 78 | 1007.0 |
| 20260506215012 | 13 | 31 | 1.6 | 14.5 | 0.00 | 0.53 | 0.53 | 78 | 1007.0 |
| 20260506214508 | 13 | 101 | 1.6 | 14.5 | 0.00 | 0.53 | 0.53 | 77 | 1007.0 |
| 20260506214006 | 13 | 60 | 3.2 | 12.9 | 0.00 | 0.53 | 0.53 | 77 | 1006.9 |
| 20260506213508 | 13 | 55 | 3.2 | 14.5 | 0.00 | 0.53 | 0.53 | 78 | 1006.8 |
| 20260506213006 | 14 | 63 | 8.0 | 16.1 | 0.00 | 0.53 | 0.53 | 77 | 1006.6 |
| 20260506212505 | 14 | 57 | 1.6 | 16.1 | 0.00 | 0.53 | 0.53 | 78 | 1006.5 |
| 20260506212005 | 14 | 355 | 3.2 | 17.7 | 0.00 | 0.53 | 0.53 | 78 | 1006.4 |
| 20260506211506 | 14 | 306 | 4.8 | 17.7 | 0.00 | 0.53 | 0.53 | 77 | 1006.2 |
| 20260506211006 | 14 | 5 | 1.6 | 19.3 | 0.00 | 0.53 | 0.53 | 79 | 1006.0 |
| 20260506210505 | 14 | 25 | 3.2 | 19.3 | 0.00 | 0.53 | 0.53 | 77 | 1006.0 |
| 20260506210015 | 14 | 22 | 8.0 | 17.7 | 0.00 | 0.53 | 0.53 | 78 | 1006.0 |
| 20260506205504 | 14 | 336 | 6.4 | 17.7 | 0.00 | 0.53 | 0.53 | 78 | 1005.9 |
| 20260506205008 | 14 | 109 | 3.2 | 12.9 | 0.00 | 0.53 | 0.53 | 81 | 1005.8 |
| 20260506204512 | 14 | 340 | 4.8 | 14.5 | 0.00 | 0.56 | 0.53 | 81 | 1005.8 |
| 20260506204010 | 14 | 30 | 3.2 | 16.1 | 0.00 | 0.64 | 0.53 | 81 | 1005.8 |
| 20260506203503 | 14 | 310 | 6.4 | 17.7 | 0.00 | 0.66 | 0.53 | 81 | 1005.7 |
| 20260506203021 | 14 | 85 | 4.8 | 17.7 | 0.00 | 0.66 | 0.53 | 80 | 1005.7 |
| 20260506202510 | 14 | 355 | 3.2 | 19.3 | 0.00 | 0.66 | 0.53 | 82 | 1005.5 |
| 20260506202007 | 14 | 40 | 6.4 | 20.9 | 0.00 | 0.66 | 0.53 | 82 | 1005.5 |
| 20260506201511 | 14 | 83 | 8.0 | 20.9 | 0.00 | 0.66 | 0.53 | 80 | 1005.7 |
| 20260506201005 | 14 | 360 | 3.2 | 20.9 | 0.00 | 0.66 | 0.53 | 83 | 1005.5 |
| 20260506200506 | 14 | 317 | 4.8 | 16.1 | 0.00 | 0.66 | 0.53 | 83 | 1005.6 |
| 20260506200016 | 14 | 355 | 4.8 | 19.3 | 0.00 | 0.66 | 0.53 | 84 | 1005.4 |
| 20260506195508 | 14 | 52 | 8.0 | 19.3 | 0.00 | 0.66 | 0.53 | 83 | 1005.3 |
| 20260506195010 | 15 | 332 | 6.4 | 19.3 | 0.00 | 0.66 | 0.53 | 82 | 1005.2 |
| 20260506194516 | 15 | 346 | 6.4 | 19.3 | 0.00 | 0.66 | 0.53 | 83 | 1005.3 |
| 20260506194010 | 15 | 350 | 6.4 | 20.9 | 0.00 | 0.66 | 0.53 | 84 | 1005.1 |
| 20260506193507 | 15 | 136 | 4.8 | 20.9 | 0.00 | 0.66 | 0.53 | 83 | 1005.1 |
| 20260506193022 | 15 | 34 | 6.4 | 17.7 | 0.00 | 0.66 | 0.53 | 83 | 1005.0 |
| 20260506192508 | 15 | 21 | 6.4 | 17.7 | 0.00 | 0.66 | 0.53 | 83 | 1004.9 |
| 20260506192008 | 15 | 352 | 6.4 | 17.7 | 0.00 | 0.66 | 0.53 | 83 | 1004.8 |
| 20260506191522 | 15 | 28 | 6.4 | 17.7 | 0.00 | 0.66 | 0.53 | 83 | 1004.7 |
| 20260506191006 | 16 | 5 | 4.8 | 17.7 | 0.00 | 0.66 | 0.53 | 85 | 1004.9 |
| 20260506190508 | 16 | 337 | 3.2 | 9.7 | 0.00 | 0.66 | 0.53 | 86 | 1004.4 |
| 20260506190015 | 16 | 31 | 3.2 | 12.9 | 0.00 | 0.66 | 0.53 | 86 | 1004.5 |
| 20260506185506 | 16 | 351 | 1.6 | 12.9 | 0.00 | 0.66 | 0.53 | 87 | 1004.6 |
| 20260506185007 | 16 | 40 | 3.2 | 9.7 | 0.00 | 0.66 | 0.53 | 88 | 1004.4 |
| 20260506184514 | 15 | 267 | 1.6 | 6.4 | 0.00 | 0.66 | 0.53 | 90 | 1004.6 |
| 20260506184007 | 15 | 334 | 1.6 | 9.7 | 0.03 | 0.66 | 0.53 | 90 | 1004.4 |
| 20260506183508 | 15 | 323 | 3.2 | 9.7 | 0.03 | 0.66 | 0.53 | 91 | 1004.7 |
| 20260506183014 | 15 | 336 | 1.6 | 9.7 | 0.03 | 0.66 | 0.53 | 91 | 1004.8 |
| 20260506182504 | 14 | 329 | 3.2 | 8.0 | 0.03 | 0.66 | 0.53 | 91 | 1004.5 |
| 20260506182008 | 14 | 317 | 0.0 | 12.9 | 0.03 | 0.66 | 0.53 | 91 | 1004.7 |
| 20260506181528 | 14 | 345 | 3.2 | 14.5 | 0.03 | 0.66 | 0.53 | 91 | 1004.6 |
| 20260506181004 | 14 | 17 | 4.8 | 14.5 | 0.03 | 0.66 | 0.53 | 91 | 1004.5 |
| 20260506180503 | 14 | 338 | 3.2 | 12.9 | 0.03 | 0.66 | 0.53 | 92 | 1004.8 |
| 20260506180014 | 14 | 351 | 3.2 | 19.3 | 0.03 | 0.66 | 0.53 | 92 | 1004.5 |
| 20260506175503 | 14 | 9 | 6.4 | 19.3 | 0.03 | 0.66 | 0.53 | 92 | 1004.4 |
| 20260506175004 | 15 | 5 | 4.8 | 16.1 | 0.03 | 0.66 | 0.53 | 93 | 1004.5 |
| 20260506174504 | 14 | 326 | 3.2 | 12.9 | 0.03 | 0.66 | 0.53 | 93 | 1004.4 |
| 20260506174003 | 14 | 331 | 3.2 | 14.5 | 0.00 | 0.64 | 0.51 | 93 | 1004.4 |
| 20260506173504 | 14 | 360 | 4.8 | 14.5 | 0.00 | 0.64 | 0.51 | 93 | 1004.4 |
| 20260506173006 | 14 | 5 | 1.6 | 9.7 | 0.00 | 0.64 | 0.51 | 92 | 1004.5 |
| 20260506172504 | 15 | 315 | 1.6 | 9.7 | 0.00 | 0.64 | 0.51 | 92 | 1004.6 |
| 20260506172004 | 15 | 314 | 1.6 | 9.7 | 0.03 | 0.64 | 0.51 | 91 | 1004.5 |
| 20260506171510 | 15 | 355 | 3.2 | 9.7 | 0.03 | 0.64 | 0.51 | 91 | 1004.3 |
| 20260506171003 | 15 | 320 | 3.2 | 12.9 | 0.03 | 0.64 | 0.51 | 90 | 1004.3 |
| 20260506170503 | 15 | 279 | 1.6 | 16.1 | 0.03 | 0.64 | 0.51 | 90 | 1004.3 |
| 20260506170009 | 15 | 348 | 4.8 | 16.1 | 0.03 | 0.64 | 0.51 | 89 | 1004.3 |
| 20260506165503 | 15 | 302 | 4.8 | 16.1 | 0.03 | 0.64 | 0.51 | 88 | 1004.2 |
| 20260506165004 | 15 | 313 | 6.4 | 17.7 | 0.03 | 0.64 | 0.51 | 89 | 1004.2 |
| 20260506164505 | 15 | 337 | 3.2 | 17.7 | 0.03 | 0.64 | 0.51 | 90 | 1004.1 |
| 20260506164003 | 15 | 341 | 4.8 | 16.1 | 0.03 | 0.64 | 0.51 | 90 | 1004.2 |
| 20260506163505 | 15 | 286 | 1.6 | 14.5 | 0.03 | 0.64 | 0.51 | 93 | 1004.2 |
| 20260506163006 | 15 | 343 | 3.2 | 12.9 | 0.03 | 0.64 | 0.51 | 92 | 1004.2 |
| 20260506162503 | 15 | 212 | 1.6 | 11.3 | 0.03 | 0.64 | 0.51 | 93 | 1004.4 |
| 20260506162003 | 15 | 334 | 3.2 | 9.7 | 0.00 | 0.61 | 0.48 | 92 | 1004.3 |
| 20260506161504 | 15 | 342 | 1.6 | 11.3 | 0.00 | 0.61 | 0.48 | 94 | 1004.4 |
| 20260506161003 | 15 | 277 | 3.2 | 12.9 | 0.00 | 0.61 | 0.48 | 93 | 1004.4 |
| 20260506160504 | 14 | 319 | 3.2 | 12.9 | 0.00 | 0.61 | 0.48 | 93 | 1004.2 |
| 20260506160008 | 14 | 355 | 1.6 | 11.3 | 0.00 | 0.61 | 0.48 | 93 | 1004.3 |
| 20260506155503 | 14 | 298 | 1.6 | 11.3 | 0.00 | 0.61 | 0.48 | 93 | 1004.3 |
| 20260506155003 | 13 | 331 | 1.6 | 8.0 | 0.00 | 0.61 | 0.48 | 93 | 1004.5 |
| 20260506154508 | 13 | 14 | 1.6 | 8.0 | 0.00 | 0.61 | 0.48 | 93 | 1004.4 |
| 20260506154004 | 13 | 322 | 1.6 | 8.0 | 0.00 | 0.61 | 0.48 | 92 | 1004.3 |
| 20260506153504 | 13 | 333 | 1.6 | 8.0 | 0.00 | 0.61 | 0.48 | 92 | 1004.4 |
| 20260506153005 | 13 | 360 | 1.6 | 9.7 | 0.00 | 0.61 | 0.48 | 92 | 1004.3 |
| 20260506152504 | 13 | 355 | 1.6 | 9.7 | 0.00 | 0.61 | 0.48 | 92 | 1004.3 |
| 20260506152007 | 13 | 296 | 3.2 | 8.0 | 0.00 | 0.61 | 0.48 | 91 | 1004.1 |
| 20260506151504 | 13 | 315 | 3.2 | 8.0 | 0.00 | 0.61 | 0.48 | 91 | 1004.2 |
| 20260506151004 | 13 | 325 | 1.6 | 11.3 | 0.00 | 0.61 | 0.48 | 92 | 1004.1 |
| 20260506150506 | 13 | 298 | 4.8 | 11.3 | 0.03 | 0.61 | 0.48 | 92 | 1004.1 |
| 20260506150010 | 13 | 327 | 3.2 | 11.3 | 0.03 | 0.61 | 0.48 | 91 | 1004.0 |
| 20260506145504 | 13 | 338 | 1.6 | 12.9 | 0.03 | 0.61 | 0.48 | 92 | 1004.0 |
| 20260506145005 | 13 | 323 | 3.2 | 12.9 | 0.03 | 0.61 | 0.48 | 92 | 1003.9 |
| 20260506144508 | 13 | 336 | 3.2 | 9.7 | 0.03 | 0.61 | 0.48 | 92 | 1003.8 |
| 20260506144005 | 13 | 31 | 1.6 | 12.9 | 0.05 | 0.61 | 0.48 | 92 | 1003.9 |
| 20260506143505 | 13 | 5 | 4.8 | 12.9 | 0.05 | 0.61 | 0.48 | 92 | 1003.9 |
| 20260506143019 | 13 | 350 | 3.2 | 14.5 | 0.05 | 0.61 | 0.48 | 92 | 1003.9 |
| 20260506142504 | 13 | 312 | 4.8 | 14.5 | 0.05 | 0.61 | 0.48 | 92 | 1003.8 |
| 20260506142008 | 13 | 277 | 3.2 | 9.7 | 0.05 | 0.61 | 0.48 | 92 | 1003.7 |
| 20260506141514 | 13 | 342 | 0.0 | 8.0 | 0.05 | 0.61 | 0.48 | 92 | 1003.8 |
| 20260506141004 | 13 | 32 | 1.6 | 12.9 | 0.05 | 0.61 | 0.48 | 91 | 1003.7 |
| 20260506140505 | 13 | 307 | 3.2 | 12.9 | 0.03 | 0.58 | 0.46 | 91 | 1003.7 |
| 20260506140007 | 13 | 42 | 4.8 | 11.3 | 0.03 | 0.58 | 0.46 | 91 | 1003.9 |
| 20260506135506 | 13 | 304 | 3.2 | 8.0 | 0.05 | 0.58 | 0.46 | 92 | 1003.6 |
| 20260506135005 | 13 | 253 | 0.0 | 12.9 | 0.05 | 0.58 | 0.46 | 92 | 1003.8 |